Volver al catálogo

BREEZE-M DEB

ActivoHEO
NORAD 32043·DEBRIS·🇷🇺 Russia

Lanzado Feb 28, 2006 desde Baikonur Cosmodrome

Loading…

Próximos Pases (próximas 24 horas)

TLE

ActualizadoSource: Space-Track

Época: Sep 14, 2026, 01:21 UTC

1 32043U 06006W   26257.05643851  .00000142  00000-0  32358-3 0  9999
2 32043  51.5725 181.1663 5107599  26.2483 352.5111  5.19508695370563

Sigue BREEZE-M DEB en tiempo real con AllMySat

Download on the App Store